Find Starlink 2640

NORAD ID: 48438 Int'l Des: 2021-040 Owner: SPXS Country: US Constellation: starlink operational
LEOCIRCULAR

当前视图

正在加载3D地球...

About Starlink 2640

Starlink 2640 (NORAD 48438) is a starlink constellation satellite (v1.0) launched May 9, 2021 by SPXS of US. It operates in LEO, CIRCULAR orbit with a mass of 260.00 kg.

关于 Starlink 2640

正在加载描述...

即将过境

Passes for default location (London). Set your location on the main map for personalized predictions.

高度历史

Loading altitude history...

两行轨道根数

1 48438U 21040L 26171.40888808 .00000633 00000-0 32170-4 0 9994
2 48438 53.1608 60.3379 0001330 101.0474 259.0677 15.31700801282413
Epoch: Jun 20, 2026 • Age: 22 hours

当前状态

高度 490.1 km
速度 7.62 km/s
星下点 -53.21°S, 48.8°W
发射日期 May 9, 2021
运行时间 5.1 years
类型 internet

技术详情

分类 Payload
质量 260.00 kg
干质量 248.00 kg
总质量 260.00 kg
长度 0.20 m
直径 2.80 m
跨度 9.00 m
形状 Box + pan
制造商 SPXS
平台类型 Starlink
阶段状态 In Orbit
所有者/国家 SPXS/US

Most Searched